Total_Precipitation_Accumulation
1.35 1.54 1.50 1.19 1.10 0.99 0.85 0.83 0.64 0.46 0.44 0.51 0.52 0.52 0.47 0.40 0.42 0.41 0.38 0.43 0.51 0.55 0.59 0.71 0.83 1.03 1.16 1.30 1.45 1.69 1.96 2.09 2.15 2.20 2.18 2.10 2.27 2.39 2.28 2.15 2.21 2.38 2.52 2.67
1.45 1.20 0.76 0.65 0.71 0.87 0.91 0.91 0.69 0.50 0.48 0.59 0.59 0.57 0.46 0.40 0.42 0.39 0.36 0.41 0.51 0.56 0.63 0.72 0.82 1.00 1.12 1.29 1.38 1.59 1.87 2.05 2.02 1.98 2.04 2.01 2.05 2.16 2.24 2.19 2.15 2.20 2.41 2.60
1.17 0.74 0.52 0.69 0.82 0.98 0.94 0.82 0.66 0.63 0.63 0.69 0.75 0.72 0.45 0.39 0.40 0.40 0.41 0.43 0.51 0.55 0.61 0.69 0.77 0.92 1.08 1.28 1.38 1.41 1.66 2.02 2.08 2.07 2.20 2.23 2.29 2.32 2.32 2.21 2.15 2.16 2.23 2.35
0.92 0.55 0.58 0.81 0.85 0.90 0.90 0.52 0.56 0.70 0.94 0.97 0.84 1.03 0.56 0.40 0.40 0.40 0.44 0.51 0.53 0.56 0.61 0.68 0.75 0.90 1.01 1.20 1.46 1.52 1.58 1.87 2.13 2.17 2.17 2.13 2.14 2.12 2.12 2.04 1.95 2.05 2.23 2.31
1.01 0.59 0.64 0.84 0.69 0.70 0.73 0.49 0.59 0.81 1.10 1.12 0.84 1.04 0.65 0.39 0.44 0.40 0.40 0.46 0.48 0.53 0.63 0.70 0.77 0.91 1.05 1.21 1.45 1.63 1.68 1.74 1.97 2.06 2.05 2.02 2.01 2.00 2.07 2.06 1.97 1.94 2.09 2.30
0.79 0.60 0.67 0.64 0.51 0.58 0.69 0.79 0.97 1.14 1.58 1.65 0.69 0.71 0.69 0.57 0.58 0.46 0.40 0.45 0.48 0.53 0.66 0.72 0.80 0.97 1.14 1.28 1.48 1.67 1.80 1.69 1.77 2.03 2.05 1.92 1.87 1.88 1.97 2.05 2.09 2.06 2.02 2.09
1.05 0.80 0.72 0.62 0.77 0.90 1.06 1.58 2.35 2.44 2.25 1.29 0.40 0.47 0.67 0.56 0.54 0.50 0.46 0.49 0.49 0.52 0.64 0.72 0.81 0.97 1.08 1.21 1.38 1.58 1.73 1.72 1.70 1.89 2.02 1.91 1.79 1.78 1.77 1.86 1.93 1.97 1.97 1.94
1.26 1.11 0.80 0.69 0.88 1.13 1.09 1.36 1.86 1.78 1.12 0.57 0.35 0.49 0.56 0.46 0.40 0.40 0.40 0.46 0.47 0.47 0.55 0.66 0.76 0.89 1.01 1.05 1.19 1.40 1.61 1.62 1.63 1.79 2.00 2.02 1.87 1.83 1.71 1.71 1.79 1.85 1.81 1.75
1.27 0.90 0.55 0.51 0.52 0.72 1.01 1.05 0.98 1.39 0.94 0.66 0.52 0.45 0.44 0.32 0.29 0.32 0.35 0.39 0.44 0.47 0.52 0.60 0.70 0.77 0.84 0.96 1.05 1.19 1.46 1.63 1.62 1.67 1.88 2.10 2.07 1.96 1.83 1.68 1.70 1.77 1.76 1.73
1.37 1.11 0.54 0.52 0.70 0.77 0.87 0.98 1.24 1.77 1.48 0.89 0.54 0.46 0.59 0.48 0.42 0.38 0.39 0.41 0.41 0.44 0.54 0.59 0.65 0.69 0.76 0.88 0.97 1.06 1.28 1.53 1.61 1.61 1.72 1.92 2.14 2.08 1.99 1.94 1.75 1.70 1.70 1.73
1.24 1.42 0.88 0.72 0.94 0.93 0.91 1.17 1.46 1.62 1.32 1.12 0.75 0.63 0.66 0.58 0.50 0.45 0.42 0.40 0.40 0.42 0.51 0.56 0.59 0.67 0.74 0.83 0.96 1.05 1.16 1.33 1.48 1.50 1.56 1.67 1.87 2.07 2.10 2.02 1.86 1.70 1.66 1.63
1.22 1.61 1.15 0.66 0.56 0.59 0.79 0.98 1.26 1.72 1.31 0.90 0.86 0.71 0.47 0.40 0.43 0.41 0.39 0.38 0.38 0.43 0.47 0.53 0.58 0.65 0.70 0.80 0.93 1.01 1.09 1.23 1.37 1.45 1.50 1.56 1.64 1.81 2.04 1.96 1.79 1.63 1.60 1.61
1.90 2.36 1.84 1.20 0.95 0.82 0.94 0.88 0.97 1.25 1.39 1.02 0.90 0.67 0.36 0.28 0.32 0.33 0.35 0.37 0.39 0.43 0.47 0.52 0.60 0.62 0.67 0.78 0.86 0.91 1.01 1.13 1.27 1.39 1.49 1.49 1.53 1.63 1.74 1.83 1.76 1.63 1.55 1.55
2.31 2.43 1.66 1.30 1.03 0.98 0.93 0.70 0.74 1.24 1.63 0.98 0.59 0.48 0.34 0.32 0.34 0.34 0.35 0.36 0.39 0.43 0.47 0.51 0.58 0.60 0.64 0.72 0.83 0.86 0.97 1.08 1.15 1.28 1.37 1.40 1.40 1.44 1.49 1.58 1.74 1.73 1.63 1.52
1.99 1.96 0.91 0.54 0.42 0.52 0.61 0.55 0.57 0.86 0.90 0.82 0.49 0.41 0.43 0.42 0.41 0.41 0.41 0.41 0.39 0.41 0.45 0.51 0.57 0.62 0.67 0.74 0.83 0.89 0.94 0.97 1.01 1.14 1.23 1.32 1.36 1.43 1.46 1.42 1.51 1.70 1.67 1.52
1.70 1.68 0.85 0.50 0.34 0.41 0.49 0.40 0.42 0.50 0.52 0.50 0.37 0.38 0.39 0.36 0.32 0.33 0.38 0.41 0.43 0.45 0.47 0.49 0.56 0.61 0.68 0.75 0.86 0.97 0.99 1.00 0.96 1.03 1.15 1.26 1.35 1.48 1.48 1.41 1.45 1.59 1.67 1.61
1.61 1.65 1.42 0.78 0.37 0.65 0.72 0.48 0.46 0.49 0.48 0.53 0.59 0.50 0.38 0.36 0.36 0.42 0.47 0.48 0.49 0.49 0.50 0.50 0.55 0.62 0.71 0.77 0.87 1.00 1.02 1.01 0.99 1.01 1.09 1.18 1.26 1.42 1.46 1.44 1.50 1.55 1.62 1.70
1.31 1.57 1.97 1.30 0.90 1.21 0.62 0.33 0.37 0.43 0.50 0.55 0.53 0.43 0.42 0.45 0.40 0.41 0.48 0.55 0.55 0.51 0.51 0.51 0.56 0.64 0.68 0.75 0.82 0.90 0.95 0.97 1.04 1.07 1.10 1.17 1.20 1.26 1.39 1.47 1.49 1.51 1.53 1.58
0.79 1.51 2.29 1.90 1.35 0.73 0.34 0.27 0.36 0.50 0.56 0.49 0.43 0.39 0.36 0.33 0.30 0.32 0.35 0.44 0.54 0.54 0.54 0.56 0.60 0.64 0.66 0.69 0.77 0.87 0.91 0.94 1.06 1.14 1.15 1.14 1.11 1.16 1.29 1.38 1.46 1.49 1.51 1.46
0.81 1.46 2.47 2.15 1.67 0.80 0.45 0.27 0.25 0.42 0.70 0.43 0.37 0.40 0.36 0.36 0.48 0.39 0.33 0.41 0.51 0.50 0.52 0.58 0.61 0.59 0.62 0.68 0.74 0.86 0.92 0.90 1.03 1.12 1.16 1.09 1.01 1.01 1.06 1.17 1.34 1.44 1.46 1.39
1.25 1.96 2.32 1.79 1.48 0.66 0.41 0.28 0.31 0.69 0.77 0.40 0.38 0.42 0.43 0.50 0.58 0.45 0.40 0.46 0.50 0.48 0.51 0.54 0.56 0.56 0.65 0.70 0.71 0.82 0.90 0.97 1.02 1.10 1.15 1.06 0.98 0.98 1.00 1.08 1.25 1.38 1.44 1.42
0.96 1.35 1.38 1.32 1.54 0.84 0.40 0.41 0.69 0.80 0.45 0.35 0.33 0.34 0.37 0.36 0.33 0.33 0.37 0.44 0.46 0.43 0.43 0.46 0.51 0.55 0.62 0.68 0.73 0.81 0.90 0.98 1.05 1.11 1.11 1.09 1.06 1.02 1.04 1.09 1.22 1.36 1.43 1.48
0.74 0.96 1.03 0.99 0.85 0.56 0.44 0.56 0.59 0.51 0.41 0.32 0.33 0.30 0.31 0.30 0.30 0.34 0.38 0.41 0.44 0.41 0.41 0.43 0.49 0.51 0.58 0.66 0.73 0.84 0.92 0.94 1.02 1.08 1.12 1.12 1.13 1.10 1.11 1.15 1.23 1.36 1.43 1.47
0.49 0.53 0.73 0.69 0.45 0.36 0.38 0.42 0.42 0.38 0.36 0.31 0.31 0.30 0.28 0.28 0.28 0.32 0.36 0.37 0.39 0.40 0.40 0.42 0.47 0.50 0.59 0.65 0.69 0.79 0.88 0.88 0.90 0.96 1.07 1.08 1.11 1.16 1.21 1.24 1.25 1.33 1.43 1.49
0.44 0.52 0.67 0.61 0.37 0.34 0.32 0.33 0.34 0.29 0.26 0.25 0.26 0.27 0.27 0.28 0.28 0.30 0.34 0.36 0.39 0.45 0.45 0.47 0.50 0.52 0.61 0.67 0.72 0.79 0.81 0.81 0.84 0.88 1.01 1.11 1.15 1.19 1.26 1.28 1.29 1.36 1.36 1.51
0.35 0.50 0.69 0.62 0.40 0.47 0.39 0.31 0.30 0.29 0.27 0.28 0.28 0.27 0.25 0.28 0.32 0.31 0.34 0.37 0.41 0.47 0.50 0.51 0.53 0.57 0.63 0.70 0.79 0.82 0.78 0.78 0.83 0.89 0.96 1.08 1.17 1.17 1.17 1.19 1.24 1.40 1.43 1.46